Location: Laura�t
(43.9341°N, 0.2497°E)
Time: 23:06:09
(UTC+00:00)

ERS-2 - Pass Details

Date: 03 March 2021
Orbit: 492 x 496 km, 98.6° (Epoch: 17 April)

Event Time Altitude Azimuth Distance (km) Brightness Sun altitude
Rises 18:23:34 0° 21° (NNE) 2,593 5.5 -6.8°
Reaches altitude 10° 18:25:46 10° 30° (NNE) 1,705 4.5 -7.2°
Maximum altitude 18:29:12 38° 100° (E) 776 2.6 -7.8°
Drops below altitude 10° 18:32:37 10° 169° (S) 1,692 4.7 -8.4°
Sets 18:34:47 0° 178° (S) 2,570 5.7 -8.8°
